Starlink 31029

operational
NORAD ID: 58712 Int'l Des: 2024-002 Owner: SPXS Country: US Constellation: starlink
LEOCIRCULAR

Starlink 31029について

説明を読み込み中...

リアルタイム位置

3D地球を読み込み中...

次回通過

高度履歴

Altitude vs Time

uPlot chart will show altitude changes over time

軌道要素

1 58712U 24002H 25305.18853575 .00000237 00000-0 20141-4 0 9992
2 58712 53.1604 106.6410 0001213 85.2161 274.8978 15.30191931102340
Epoch: Nov 1, 2025 • Age: 18 hours

現在のステータス

高度 475.4 km
速度 7.63 km/s
衛星直下点 19.56°N, 110.29°W
打ち上げ日 Jan 3, 2024
運用期間 1.8 years
タイプ internet

技術仕様

分類 Payload
質量 730.00 kg
乾燥質量 700.00 kg
総質量 730.00 kg
長さ 0.30 m
直径 4.10 m
スパン 29.00 m
形状 Box + pan
製造者 SPXS
バスタイプ Starlink V2M
フェーズステータス In Orbit
所有者/国 SPXS/US

大規模コンステレーション

Loading constellations...